This demonstration page uses our WeatherBlox Daily Observations layout. Learn more.

Left ArrowRight Arrow

53.62937, 11.41316

Hourly Observations for August 17, 2022

Temp ( °F °C ) Dew Point ( °F °C ) Humidity (%) Winds ( mph kmh ) Pressure ( in mb ) Visibility ( mi km ) Precip ( " mm )
12:20 am 00:20 Partly Cloudy 68 20 64 18 88 88 VRB 1 2 29.85 1011 6 10 0.00 0.00
12:50 am 00:50 Partly Cloudy 66 19 63 17 88 88 Calm 29.85 1011 6 10 0.00 0.00
1:20 am 01:20 Mostly Clear 66 19 63 17 88 88 Calm 29.85 1011 6 10 0.00 0.00
1:50 am 01:50 Mostly Clear 64 18 63 17 94 94 Calm 29.85 1011 6 10 0.00 0.00
2:20 am 02:20 Mostly Clear 64 18 63 17 94 94 VRB 1 2 29.85 1011 6 10 0.00 0.00
2:50 am 02:50 Mostly Clear 64 18 63 17 94 94 VRB 2 4 29.85 1011 3 5 0.00 0.00
3:20 am 03:20 Mostly Cloudy 63 17 63 17 100 100 Calm 29.85 1011 3 5 0.00 0.00
3:50 am 03:50 Mostly Cloudy 63 17 61 16 94 94 Calm 29.85 1011 6 10 0.00 0.00
4:20 am 04:20 Mostly Clear 63 17 61 16 94 94 VRB 1 2 29.85 1011 3 5 0.00 0.00
4:50 am 04:50 Mostly Clear 63 17 61 16 94 94 Calm 29.85 1011 0 1 0.00 0.00
5:20 am 05:20 Mostly Cloudy 63 17 61 16 94 94 Calm 29.85 1011 6 9 0.00 0.00
5:50 am 05:50 Partly Cloudy 61 16 61 16 100 100 Calm 29.85 1011 4 6 0.00 0.00
6:20 am 06:20 Mostly Sunny 61 16 59 15 94 94 Calm 29.85 1011 6 10 0.00 0.00
6:50 am 06:50 Mostly Sunny 61 16 61 16 100 100 Calm 29.85 1011 6 10 0.00 0.00
7:20 am 07:20 Mostly Sunny 63 17 63 17 100 100 VRB 1 2 29.85 1011 6 10 0.00 0.00
7:50 am 07:50 Mostly Sunny 66 19 64 18 94 94 Calm 29.85 1011 6 10 0.00 0.00
8:20 am 08:20 Mostly Sunny 68 20 66 19 94 94 Calm 29.85 1011 6 10 0.00 0.00
8:50 am 08:50 Mostly Sunny 70 21 66 19 88 88 NE 3 6 29.88 1012 6 10 0.00 0.00
9:20 am 09:20 Mostly Sunny 72 22 66 19 83 83 E 6 9 29.88 1012 6 10 0.00 0.00
9:50 am 09:50 Mostly Sunny 73 23 66 19 78 78 E 5 7 29.88 1012 6 10 0.00 0.00
10:20 am 10:20 Mostly Sunny 75 24 66 19 74 74 ENE 5 7 29.88 1012 6 10 0.00 0.00
10:50 am 10:50 Mostly Sunny 77 25 68 20 74 74 ENE 6 9 29.88 1012 6 10 0.00 0.00
11:20 am 11:20 Mostly Sunny 79 26 66 19 65 65 E 5 7 29.88 1012 6 10 0.00 0.00
11:50 am 11:50 Mostly Sunny 81 27 64 18 58 58 ENE 7 11 29.88 1012 6 10 0.00 0.00
12:20 pm 12:20 Mostly Sunny 81 27 66 19 62 62 E 6 9 29.88 1012 6 10 0.00 0.00
12:50 pm 12:50 Mostly Sunny 81 27 66 19 62 62 NE 6 9 29.88 1012 6 10 0.00 0.00
1:20 pm 13:20 Mostly Sunny 81 27 68 20 66 66 NNE 6 9 29.88 1012 6 10 0.00 0.00
1:50 pm 13:50 Mostly Sunny 81 27 66 19 62 62 NE 7 11 29.88 1012 6 10 0.00 0.00
2:20 pm 14:20 Mostly Sunny 81 27 66 19 62 62 NE 7 11 29.88 1012 6 10 0.00 0.00
2:50 pm 14:50 Mostly Sunny 82 28 66 19 58 58 NNE 8 13 29.88 1012 6 10 0.00 0.00
3:20 pm 15:20 Mostly Sunny 82 28 64 18 55 55 NNE 8 13 29.88 1012 6 10 0.00 0.00
3:50 pm 15:50 Mostly Sunny 84 29 64 18 52 52 ENE 9 15 29.85 1011 6 10 0.00 0.00
4:20 pm 16:20 Mostly Sunny 82 28 64 18 55 55 NE 9 15 29.85 1011 6 10 0.00 0.00
4:50 pm 16:50 Mostly Sunny 81 27 63 17 54 54 ENE 12 19 29.85 1011 6 10 0.00 0.00
5:20 pm 17:20 Mostly Sunny 79 26 63 17 58 58 NE 13 20 29.85 1011 6 10 0.00 0.00
5:50 pm 17:50 Mostly Sunny 77 25 61 16 57 57 NE 10 17 29.85 1011 6 10 0.00 0.00
6:20 pm 18:20 Mostly Sunny 77 25 63 17 61 61 NE 10 17 29.85 1011 6 10 0.00 0.00
6:50 pm 18:50 Mostly Sunny 75 24 63 17 65 65 NE 9 15 29.85 1011 6 10 0.00 0.00
7:20 pm 19:20 Mostly Sunny 75 24 63 17 65 65 NE 9 15 29.85 1011 6 10 0.00 0.00
7:50 pm 19:50 Mostly Sunny 75 24 63 17 65 65 ENE 10 17 29.85 1011 6 10 0.00 0.00
8:20 pm 20:20 Mostly Sunny 75 24 61 16 61 61 ENE 10 17 29.85 1011 6 10 0.00 0.00
8:50 pm 20:50 Partly Cloudy with Nearby Thunderstorms 73 23 61 16 65 65 NE 8 13 29.85 1011 6 10 0.00 0.00
9:20 pm 21:20 Mostly Cloudy 75 24 61 16 61 61 VRB 5 7 29.88 1012 6 10 0.00 0.00
9:50 pm 21:50 Mostly Cloudy 68 20 64 18 88 88 VRB 3 6 29.91 1013 6 10 0.00 0.00
10:20 pm 22:20 Mostly Cloudy 68 20 66 19 94 94 NNE 7 11 29.88 1012 4 7 0.00 0.00
10:50 pm 22:50 Mostly Cloudy 66 19 64 18 94 94 N 8 13 29.85 1011 6 10 0.00 0.00
11:20 pm 23:20 Mostly Cloudy 66 19 64 18 94 94 NNE 9 15 29.85 1011 6 10 0.00 0.00
11:50 pm 23:50 Cloudy 66 19 64 18 94 94 NE 7 11 29.85 1011 6 10 0.00 0.00

Powered by AerisWeather